,,PA_Meas_PMT16A,,PR_Meas_QMR101_102,,RH_Meas_QMH101,,SR_Meas_QMS101,,TA_Meas_QMH101,,GenWind,,GenWind,
time,status,PA,status,PR,status,RH,status,SR,status,TA,status,DirAvg,status,SpdAvg,
2012-09-12, 07:38:04,VALID,920.198,VALID,0,VALID,94.4008,VALID,87.0273,VALID,19.4523,VALID,309,VALID,0,
2012-09-12, 07:39:04,VALID,919.741,VALID,0,VALID,94.1797,VALID,92.3994,VALID,19.4327,VALID,309,VALID,0,
2012-09-12, 07:40:04,VALID,920.237,VALID,0,VALID,94.0272,VALID,89.4985,VALID,19.4327,VALID,309,VALID,0,
2012-09-12, 07:41:04,VALID,919.147,VALID,0,VALID,94.2026,VALID,93.3664,VALID,19.5303,VALID,309,VALID,0,
2012-09-12, 07:42:04,VALID,920.133,VALID,0,VALID,94.2712,VALID,91.4324,VALID,19.6098,VALID,309,VALID,0,
2012-09-12, 07:43:04,VALID,921.858,VALID,0,VALID,94.1873,VALID,87.4571,VALID,19.6473,VALID,309,VALID,0,
2012-09-12, 07:44:04,VALID,920.659,VALID,0,VALID,94.0501,VALID,85.6306,VALID,19.7058,VALID,309,VALID,0,
2012-09-12, 07:45:04,VALID,921.25,VALID,0,VALID,93.3335,VALID,84.986,VALID,19.6668,VALID,309,VALID,0,
2012-09-12, 07:46:04,VALID,920.223,VALID,0,VALID,93.1963,VALID,85.3083,VALID,19.7073,VALID,309,VALID,0,
2012-09-12, 07:47:04,VALID,921.021,VALID,0,VALID,93.2191,VALID,85.2008,VALID,19.7058,VALID,351,VALID,0,
2012-09-12, 07:48:04,VALID,920.367,VALID,0,VALID,93.2801,VALID,84.6636,VALID,19.7253,VALID,16,VALID,0,
2012-09-12, 07:49:04,VALID,920.931,VALID,0,VALID,93.1353,VALID,87.4571,VALID,19.7643,VALID,16,VALID,0,
2012-09-12, 07:50:04,VALID,920.808,VALID,0,VALID,93.0819,VALID,95.5152,VALID,19.7838,VALID,16,VALID,0,
2012-09-12, 07:51:04,VALID,920.325,VALID,0,VALID,93.2268,VALID,111.094,VALID,19.8228,VALID,16,VALID,0,
2012-09-12, 07:52:04,VALID,920.832,VALID,0,VALID,92.8151,VALID,131.186,VALID,19.8423,VALID,342,VALID,0,
2012-09-12, 07:53:04,VALID,920.751,VALID,0,VALID,92.5025,VALID,173.84,VALID,19.8423,VALID,347,VALID,0,
2012-09-12, 07:54:04,VALID,921.165,VALID,0,VALID,92.4187,VALID,169.972,VALID,19.8618,VALID,347,VALID,0,
2012-09-12, 07:55:04,VALID,921.232,VALID,0,VALID,92.2586,VALID,164.707,VALID,19.8408,VALID,347,VALID,0,
2012-09-12, 07:56:04,VALID,920.901,VALID,0,VALID,92.3196,VALID,166.749,VALID,19.9008,VALID,347,VALID,0,
2012-09-12, 07:57:04,VALID,921.044,VALID,0,VALID,92.3348,VALID,167.716,VALID,19.9203,VALID,329,VALID,0,
2012-09-12, 07:58:04,VALID,920.534,VALID,0,VALID,92.4873,VALID,169.757,VALID,19.9984,VALID,329,VALID,0,
2012-09-12, 07:59:04,VALID,920.727,VALID,0,VALID,92.1061,VALID,187.7,VALID,19.9788,VALID,257,VALID,0,
2012-09-12, 08:00:04,VALID,920.209,VALID,0,VALID,92.1061,VALID,182.328,VALID,19.9578,VALID,215,VALID,0,
2012-09-12, 08:01:04,VALID,920.646,VALID,0,VALID,92.3882,VALID,188.129,VALID,20.0358,VALID,195,VALID,0,
2012-09-12, 08:02:04,VALID,920.818,VALID,0,VALID,92.1747,VALID,191.245,VALID,20.1154,VALID,197,VALID,0,
2012-09-12, 08:03:04,VALID,921.277,VALID,0,VALID,92.0985,VALID,182.328,VALID,20.1739,VALID,248,VALID,0,
2012-09-12, 08:04:04,VALID,921.056,VALID,0,VALID,92.0909,VALID,153.533,VALID,20.2129,VALID,248,VALID,0,
2012-09-12, 08:05:04,VALID,920.834,VALID,0,VALID,91.4276,VALID,137.954,VALID,20.2324,VALID,248,VALID,0,
2012-09-12, 08:06:04,VALID,920.709,VALID,0,VALID,90.9016,VALID,143.112,VALID,20.2114,VALID,293,VALID,0,
2012-09-12, 08:07:04,VALID,920.751,VALID,0,VALID,91.016,VALID,153.426,VALID,20.2324,VALID,5,VALID,0,
2012-09-12, 08:08:04,VALID,920.664,VALID,0,VALID,90.6958,VALID,163.525,VALID,20.2129,VALID,14,VALID,0,
2012-09-12, 08:09:04,VALID,920.718,VALID,0,VALID,91.0617,VALID,172.55,VALID,20.2324,VALID,14,VALID,0,
2012-09-12, 08:10:04,VALID,920.849,VALID,0,VALID,91.2752,VALID,184.584,VALID,20.2909,VALID,14,VALID,0,
2012-09-12, 08:11:04,VALID,919.68,VALID,0,VALID,91.5953,VALID,189.956,VALID,20.39,VALID,357,VALID,0,
2012-09-12, 08:12:04,VALID,920.672,VALID,0,VALID,90.8254,VALID,189.741,VALID,20.4275,VALID,354,VALID,0,
2012-09-12, 08:13:04,VALID,920.792,VALID,0,VALID,90.1774,VALID,191.782,VALID,20.4259,VALID,354,VALID,0,
2012-09-12, 08:14:04,VALID,920.612,VALID,0,VALID,89.9411,VALID,195.435,VALID,20.504,VALID,354,VALID,0,
2012-09-12, 08:15:04,VALID,920.703,VALID,0,VALID,89.9106,VALID,197.155,VALID,20.543,VALID,332,VALID,0,
2012-09-12, 08:16:04,VALID,920.778,VALID,0,VALID,89.4913,VALID,195.221,VALID,20.5235,VALID,332,VALID,0,
2012-09-12, 08:17:04,VALID,920.712,VALID,0,VALID,89.9639,VALID,180.716,VALID,20.582,VALID,27,VALID,0,
2012-09-12, 08:18:04,VALID,920.708,VALID,0,VALID,89.415,VALID,175.129,VALID,20.6405,VALID,32,VALID,0,
2012-09-12, 08:19:04,VALID,920.773,VALID,0,VALID,89.6895,VALID,178.352,VALID,20.6795,VALID,32,VALID,0,
2012-09-12, 08:20:04,VALID,920.703,VALID,0,VALID,89.2092,VALID,188.344,VALID,20.699,VALID,32,VALID,0,
2012-09-12, 08:21:04,VALID,920.732,VALID,0,VALID,88.8662,VALID,198.981,VALID,20.7185,VALID,32,VALID,0,
2012-09-12, 08:22:04,VALID,920.707,VALID,0,VALID,88.9729,VALID,205.213,VALID,20.8161,VALID,32,VALID,0,
2012-09-12, 08:23:04,VALID,920.771,VALID,0,VALID,88.5917,VALID,210.37,VALID,20.8535,VALID,33,VALID,0,
2012-09-12, 08:24:04,VALID,920.769,VALID,0,VALID,87.7989,VALID,215.849,VALID,20.8535,VALID,29,VALID,0,
2012-09-12, 08:25:04,VALID,920.768,VALID,0,VALID,88.1648,VALID,215.205,VALID,20.873,VALID,8,VALID,0,
2012-09-12, 08:26:04,VALID,920.718,VALID,0,VALID,87.776,VALID,209.94,VALID,20.9511,VALID,8,VALID,0,
2012-09-12, 08:27:04,VALID,920.787,VALID,0,VALID,87.4863,VALID,203.708,VALID,21.0291,VALID,8,VALID,0,
2012-09-12, 08:28:04,VALID,920.808,VALID,0,VALID,87.0137,VALID,199.948,VALID,21.1282,VALID,8,VALID,0,
2012-09-12, 08:29:04,VALID,919.927,VALID,0,VALID,86.8993,VALID,200.485,VALID,21.1657,VALID,8,VALID,0,
2012-09-12, 08:30:04,VALID,920.818,VALID,0,VALID,86.0912,VALID,202.741,VALID,21.1852,VALID,8,VALID,0,
2012-09-12, 08:31:04,VALID,920.816,VALID,0,VALID,85.6338,VALID,198.766,VALID,21.1852,VALID,357,VALID,0,
2012-09-12, 08:32:04,VALID,920.847,VALID,0,VALID,85.4585,VALID,199.196,VALID,21.2437,VALID,357,VALID,0,
2012-09-12, 08:33:04,VALID,920.839,VALID,0,VALID,84.8486,VALID,210.047,VALID,21.3429,VALID,357,VALID,0,
2012-09-12, 08:34:04,VALID,920.852,VALID,0,VALID,85.5728,VALID,228.957,VALID,21.3234,VALID,357,VALID,0,
2012-09-12, 08:35:04,VALID,920.842,VALID,0,VALID,85.8473,VALID,214.453,VALID,21.3445,VALID,357,VALID,0,
2012-09-12, 08:36:04,VALID,920.835,VALID,0,VALID,86.5182,VALID,218.213,VALID,21.4421,VALID,357,VALID,0,
2012-09-12, 08:37:04,VALID,920.621,VALID,0,VALID,85.3136,VALID,221.973,VALID,21.4811,VALID,20,VALID,0,
2012-09-12, 08:38:04,VALID,920.641,VALID,0,VALID,84.9782,VALID,228.312,VALID,21.4421,VALID,20,VALID,0,
2012-09-12, 08:39:04,VALID,920.729,VALID,0,VALID,86.724,VALID,235.511,VALID,21.4209,VALID,26,VALID,0,
2012-09-12, 08:40:04,VALID,920.811,VALID,0,VALID,86.8688,VALID,236.585,VALID,21.3624,VALID,56,VALID,0,
2012-09-12, 08:41:04,VALID,920.85,VALID,0,VALID,87.6235,VALID,234.651,VALID,21.2453,VALID,56,VALID,0,
2012-09-12, 08:42:04,VALID,920.82,VALID,0,VALID,88.485,VALID,238.09,VALID,21.1478,VALID,53,VALID,0,
2012-09-12, 08:43:04,VALID,920.757,VALID,0,VALID,88.6146,VALID,233.47,VALID,21.1266,VALID,21,VALID,0,
2012-09-12, 08:44:04,VALID,920.808,VALID,0,VALID,87.5321,VALID,236.263,VALID,21.1673,VALID,21,VALID,0,
2012-09-12, 08:45:04,VALID,920.868,VALID,0,VALID,87.1433,VALID,230.569,VALID,21.2258,VALID,20,VALID,0,
2012-09-12, 08:46:04,VALID,920.797,VALID,0,VALID,87.1356,VALID,220.899,VALID,21.325,VALID,21,VALID,0,
2012-09-12, 08:47:04,VALID,920.776,VALID,0,VALID,86.846,VALID,215.42,VALID,21.4599,VALID,21,VALID,0,
2012-09-12, 08:48:04,VALID,920.872,VALID,0,VALID,84.8562,VALID,212.626,VALID,21.5575,VALID,21,VALID,0,
2012-09-12, 08:49:04,VALID,920.959,VALID,0,VALID,83.6289,VALID,207.791,VALID,21.5559,VALID,21,VALID,0,
2012-09-12, 08:50:04,VALID,920.981,VALID,0,VALID,84.3455,VALID,195.865,VALID,21.577,VALID,21,VALID,0,
2012-09-12, 08:51:04,VALID,920.965,VALID,0,VALID,84.5132,VALID,177.385,VALID,21.7136,VALID,21,VALID,0,
2012-09-12, 08:52:04,VALID,920.912,VALID,0,VALID,83.9719,VALID,157.938,VALID,21.8095,VALID,21,VALID,0,
2012-09-12, 08:53:04,VALID,920.898,VALID,0,VALID,83.6289,VALID,143.971,VALID,21.9283,VALID,21,VALID,0,
2012-09-12, 08:54:04,VALID,920.985,VALID,0,VALID,83.545,VALID,134.731,VALID,21.9087,VALID,21,VALID,0,
2012-09-12, 08:55:04,VALID,920.822,VALID,0,VALID,85.2832,VALID,128.822,VALID,21.8112,VALID,342,VALID,0,
2012-09-12, 08:56:04,VALID,921.091,VALID,0,VALID,86.8002,VALID,127.21,VALID,21.712,VALID,278,VALID,0,
2012-09-12, 08:57:04,VALID,921.012,VALID,0,VALID,86.2513,VALID,129.467,VALID,21.6746,VALID,278,VALID,0,
2012-09-12, 08:58:04,VALID,921.09,VALID,0,VALID,85.1307,VALID,135.054,VALID,21.5754,VALID,278,VALID,0,
2012-09-12, 08:59:04,VALID,920.994,VALID,0,VALID,86.0607,VALID,144.401,VALID,21.4973,VALID,278,VALID,0,
2012-09-12, 09:00:04,VALID,921.011,VALID,0,VALID,85.9464,VALID,161.591,VALID,21.4388,VALID,278,VALID,0,
2012-09-12, 09:01:04,VALID,920.979,VALID,0,VALID,86.9069,VALID,189.956,VALID,21.3998,VALID,278,VALID,0,
2012-09-12, 09:02:04,VALID,921.051,VALID,0,VALID,87.3186,VALID,225.841,VALID,21.3998,VALID,278,VALID,0,
2012-09-12, 09:03:04,VALID,920.908,VALID,0,VALID,86.6706,VALID,250.553,VALID,21.499,VALID,314,VALID,0,
2012-09-12, 09:04:04,VALID,920.91,VALID,0,VALID,87.2424,VALID,271.504,VALID,21.5168,VALID,328,VALID,0,
2012-09-12, 09:05:04,VALID,920.807,VALID,0,VALID,87.3872,VALID,272.256,VALID,21.6144,VALID,328,VALID,0,
2012-09-12, 09:06:04,VALID,920.897,VALID,0,VALID,86.3809,VALID,242.387,VALID,21.7315,VALID,328,VALID,0,
2012-09-12, 09:07:04,VALID,920.912,VALID,0,VALID,86.1827,VALID,258.289,VALID,21.7705,VALID,300,VALID,0,
2012-09-12, 09:08:04,VALID,919.896,VALID,0,VALID,85.8168,VALID,296.323,VALID,21.7721,VALID,273,VALID,0,
2012-09-12, 09:09:04,VALID,920.899,VALID,0,VALID,85.8168,VALID,291.488,VALID,21.7331,VALID,264,VALID,0,
2012-09-12, 09:10:04,VALID,920.984,VALID,0,VALID,85.9845,VALID,258.503,VALID,21.7526,VALID,264,VALID,0,
2012-09-12, 09:11:04,VALID,920.97,VALID,0,VALID,85.6033,VALID,250.123,VALID,21.8307,VALID,264,VALID,0,
2012-09-12, 09:12:04,VALID,920.996,VALID,0,VALID,84.7038,VALID,239.809,VALID,21.8697,VALID,264,VALID,0,
2012-09-12, 09:13:04,VALID,920.991,VALID,0,VALID,84.1701,VALID,229.065,VALID,21.8307,VALID,264,VALID,0,
2012-09-12, 09:14:04,VALID,921.068,VALID,0,VALID,83.8423,VALID,225.519,VALID,21.79,VALID,264,VALID,0,
2012-09-12, 09:15:04,VALID,920.93,VALID,0,VALID,84.7876,VALID,232.61,VALID,21.7705,VALID,267,VALID,0,
2012-09-12, 09:16:04,VALID,920.98,VALID,0,VALID,82.9504,VALID,245.288,VALID,21.7705,VALID,274,VALID,0,
2012-09-12, 09:17:04,VALID,920.916,VALID,0,VALID,82.5082,VALID,257.429,VALID,21.712,VALID,264,VALID,0,
2012-09-12, 09:18:04,VALID,920.885,VALID,0,VALID,82.2795,VALID,267.743,VALID,21.6729,VALID,264,VALID,0,
2012-09-12, 09:19:04,VALID,920.931,VALID,0,VALID,81.2351,VALID,265.38,VALID,21.6924,VALID,264,VALID,0,
2012-09-12, 09:20:04,VALID,921.025,VALID,0,VALID,82.3329,VALID,254.636,VALID,21.7315,VALID,264,VALID,0,
2012-09-12, 09:21:04,VALID,921.085,VALID,0,VALID,82.2109,VALID,221.221,VALID,21.829,VALID,264,VALID,0,
2012-09-12, 09:22:04,VALID,920.965,VALID,0,VALID,82.7064,VALID,211.874,VALID,21.9461,VALID,264,VALID,0,
2012-09-12, 09:23:04,VALID,921.031,VALID,0,VALID,82.7979,VALID,167.178,VALID,22.1022,VALID,328,VALID,0,
2012-09-12, 09:24:04,VALID,920.987,VALID,0,VALID,81.8679,VALID,151.277,VALID,22.0827,VALID,328,VALID,0,
2012-09-12, 09:25:04,VALID,921.008,VALID,0,VALID,82.4625,VALID,135.161,VALID,22.0827,VALID,328,VALID,0,
2012-09-12, 09:26:04,VALID,921.044,VALID,0,VALID,81.2961,VALID,124.632,VALID,22.0047,VALID,328,VALID,0,
2012-09-12, 09:27:04,VALID,920.971,VALID,0,VALID,81.4486,VALID,123.88,VALID,21.8892,VALID,328,VALID,0,
2012-09-12, 09:28:04,VALID,921.038,VALID,0,VALID,83.4764,VALID,131.508,VALID,21.751,VALID,276,VALID,0,
2012-09-12, 09:29:04,VALID,920.959,VALID,0,VALID,83.2248,VALID,143.434,VALID,21.712,VALID,276,VALID,0,
2012-09-12, 09:30:04,VALID,921.045,VALID,0,VALID,83.6212,VALID,156.649,VALID,21.712,VALID,276,VALID,0,
2012-09-12, 09:31:04,VALID,920.927,VALID,0,VALID,84.5742,VALID,175.344,VALID,21.7315,VALID,276,VALID,0,
2012-09-12, 09:32:04,VALID,920.925,VALID,0,VALID,84.8639,VALID,200.593,VALID,21.6729,VALID,254,VALID,0,
2012-09-12, 09:33:04,VALID,920.933,VALID,0,VALID,85.55,VALID,231.643,VALID,21.6144,VALID,258,VALID,0,
2012-09-12, 09:34:04,VALID,920.923,VALID,0,VALID,86.2361,VALID,281.603,VALID,21.5932,VALID,248,VALID,0,
2012-09-12, 09:35:04,VALID,920.825,VALID,0,VALID,86.4572,VALID,271.504,VALID,21.5932,VALID,248,VALID,0,
2012-09-12, 09:36:04,VALID,920.936,VALID,0,VALID,86.8688,VALID,296.108,VALID,21.5949,VALID,248,VALID,0,
2012-09-12, 09:37:04,VALID,921.497,VALID,0,VALID,86.9832,VALID,371.961,VALID,21.712,VALID,248,VALID,0,
2012-09-12, 09:38:04,VALID,920.995,VALID,0,VALID,85.8625,VALID,468.443,VALID,21.7315,VALID,251,VALID,0,
2012-09-12, 09:39:04,VALID,920.947,VALID,0,VALID,86.2894,VALID,564.926,VALID,21.6924,VALID,252,VALID,0,
2012-09-12, 09:40:04,VALID,920.965,VALID,0,VALID,86.5029,VALID,446.74,VALID,21.8095,VALID,270,VALID,0,
2012-09-12, 09:41:04,VALID,920.854,VALID,0,VALID,86.9603,VALID,413.541,VALID,21.8876,VALID,280,VALID,0,
2012-09-12, 09:42:04,VALID,921.181,VALID,0,VALID,86.2437,VALID,536.131,VALID,22.0632,VALID,244,VALID,0,
2012-09-12, 09:43:04,VALID,921.066,VALID,0,VALID,86.0455,VALID,573.736,VALID,22.2762,VALID,254,VALID,0,
2012-09-12, 09:44:04,VALID,921.124,VALID,0,VALID,84.254,VALID,495.411,VALID,22.4925,VALID,254,VALID,0,
2012-09-12, 09:45:04,VALID,921.47,VALID,0,VALID,83.9872,VALID,496.486,VALID,22.6894,VALID,254,VALID,0,
2012-09-12, 09:46:04,VALID,921.37,VALID,0,VALID,81.784,VALID,502.395,VALID,22.8812,VALID,254,VALID,0,
2012-09-12, 09:47:04,VALID,921.068,VALID,0,VALID,80.1374,VALID,341.77,VALID,23.0976,VALID,309,VALID,0,
2012-09-12, 09:48:04,VALID,920.829,VALID,0,VALID,79.1768,VALID,305.455,VALID,23.1367,VALID,346,VALID,0,
2012-09-12, 09:49:04,VALID,919.969,VALID,0,VALID,79.5808,VALID,286.546,VALID,23.2147,VALID,346,VALID,0,
2012-09-12, 09:50:04,VALID,921.24,VALID,0,VALID,78.3535,VALID,280.959,VALID,23.213,VALID,246,VALID,0,
2012-09-12, 09:51:04,VALID,921.076,VALID,0,VALID,80.8768,VALID,294.281,VALID,23.0195,VALID,246,VALID,0,
2012-09-12, 09:52:04,VALID,920.271,VALID,0,VALID,80.8768,VALID,317.596,VALID,22.8243,VALID,246,VALID,0,
2012-09-12, 09:53:04,VALID,920.92,VALID,0,VALID,81.1894,VALID,331.456,VALID,22.8243,VALID,246,VALID,0,
2012-09-12, 09:54:04,VALID,920.928,VALID,0,VALID,81.4105,VALID,309.538,VALID,22.8048,VALID,254,VALID,0,
2012-09-12, 09:55:04,VALID,920.813,VALID,0,VALID,81.3342,VALID,307.174,VALID,22.725,VALID,254,VALID,0,
2012-09-12, 09:56:04,VALID,920.845,VALID,0,VALID,79.9696,VALID,304.381,VALID,22.7072,VALID,254,VALID,0,
2012-09-12, 09:57:04,VALID,920.744,VALID,0,VALID,80.0687,VALID,307.604,VALID,22.7072,VALID,254,VALID,0,
2012-09-12, 09:58:04,VALID,919.869,VALID,0,VALID,81.2809,VALID,298.686,VALID,22.725,VALID,255,VALID,0,
2012-09-12, 09:59:04,VALID,921.175,VALID,0,VALID,81.0522,VALID,317.381,VALID,22.8243,VALID,254,VALID,0,
2012-09-12, 10:00:04,VALID,921.098,VALID,0,VALID,81.0217,VALID,349.613,VALID,22.7641,VALID,254,VALID,0,
2012-09-12, 10:01:04,VALID,920.579,VALID,0,VALID,82.3405,VALID,351.44,VALID,22.6877,VALID,254,VALID,0,
2012-09-12, 10:02:04,VALID,920.799,VALID,0,VALID,81.4333,VALID,365.192,VALID,22.5299,VALID,255,VALID,0,
2012-09-12, 10:03:04,VALID,920.681,VALID,0,VALID,82.0356,VALID,354.019,VALID,22.5121,VALID,254,VALID,0,
2012-09-12, 10:04:04,VALID,920.782,VALID,0,VALID,82.897,VALID,337.15,VALID,22.3542,VALID,248,VALID,0,
2012-09-12, 10:05:04,VALID,920.791,VALID,0,VALID,82.8894,VALID,393.449,VALID,22.2779,VALID,244,VALID,0,
2012-09-12, 10:06:04,VALID,920.949,VALID,0,VALID,83.8347,VALID,509.271,VALID,22.2957,VALID,244,VALID,0,
2012-09-12, 10:07:04,VALID,921.638,VALID,0,VALID,83.3087,VALID,602.745,VALID,22.4518,VALID,244,VALID,0,
2012-09-12, 10:08:04,VALID,920.794,VALID,0,VALID,81.9517,VALID,862.967,VALID,22.7463,VALID,245,VALID,0,
2012-09-12, 10:09:04,VALID,920.733,VALID,0,VALID,79.7409,VALID,696.971,VALID,23.0994,VALID,245,VALID,0,
2012-09-12, 10:10:04,VALID,920.717,VALID,0,VALID,78.6889,VALID,566.859,VALID,23.4703,VALID,246,VALID,0,
2012-09-12, 10:11:04,VALID,920.734,VALID,0,VALID,77.492,VALID,690.524,VALID,23.8004,VALID,246,VALID,0,
2012-09-12, 10:12:04,VALID,920.727,VALID,0,VALID,76.0969,VALID,676.772,VALID,24.0738,VALID,285,VALID,0,
2012-09-12, 10:13:04,VALID,920.707,VALID,0,VALID,73.3296,VALID,599.629,VALID,24.1909,VALID,271,VALID,0,
2012-09-12, 10:14:04,VALID,920.745,VALID,0,VALID,74.679,VALID,578.141,VALID,24.269,VALID,33,VALID,0,
2012-09-12, 10:15:04,VALID,920.713,VALID,0,VALID,72.735,VALID,424.607,VALID,24.4076,VALID,24,VALID,0,
2012-09-12, 10:16:04,VALID,920.794,VALID,0,VALID,72.7579,VALID,303.629,VALID,24.3472,VALID,8,VALID,0,
2012-09-12, 10:17:04,VALID,920.831,VALID,0,VALID,74.7857,VALID,272.041,VALID,24.017,VALID,310,VALID,0.0285156,
2012-09-12, 10:18:04,VALID,920.655,VALID,0,VALID,75.4871,VALID,250.553,VALID,23.7241,VALID,5,VALID,0,
2012-09-12, 10:19:04,VALID,920.721,VALID,0,VALID,76.5391,VALID,238.842,VALID,23.5466,VALID,10,VALID,0,
2012-09-12, 10:20:04,VALID,920.825,VALID,0,VALID,76.9126,VALID,228.312,VALID,23.4508,VALID,332,VALID,0,
2012-09-12, 10:21:04,VALID,920.753,VALID,0,VALID,77.0956,VALID,222.94,VALID,23.4277,VALID,332,VALID,0,
2012-09-12, 10:22:04,VALID,920.664,VALID,0,VALID,76.5162,VALID,223.8,VALID,23.4277,VALID,331,VALID,0,
2012-09-12, 10:23:04,VALID,920.671,VALID,0,VALID,76.2494,VALID,233.899,VALID,23.2911,VALID,318,VALID,0,
2012-09-12, 10:24:04,VALID,920.713,VALID,0,VALID,75.792,VALID,245.61,VALID,23.2715,VALID,181,VALID,0,
2012-09-12, 10:25:04,VALID,920.683,VALID,0,VALID,77.5911,VALID,264.09,VALID,23.2715,VALID,227,VALID,0,
2012-09-12, 10:26:04,VALID,920.721,VALID,0,VALID,77.9799,VALID,282.57,VALID,23.2325,VALID,146,VALID,0,
2012-09-12, 10:27:04,VALID,920.646,VALID,0,VALID,77.0194,VALID,294.926,VALID,23.2928,VALID,74,VALID,0,
2012-09-12, 10:28:04,VALID,920.685,VALID,0,VALID,77.7588,VALID,300.405,VALID,23.3904,VALID,9,VALID,0,
2012-09-12, 10:29:04,VALID,920.626,VALID,0,VALID,76.3104,VALID,313.084,VALID,23.4313,VALID,38,VALID,0,
2012-09-12, 10:30:04,VALID,920.874,VALID,0,VALID,77.8656,VALID,323.505,VALID,23.4082,VALID,40,VALID,0,
2012-09-12, 10:31:04,VALID,920.588,VALID,0,VALID,76.8364,VALID,347.68,VALID,23.488,VALID,28,VALID,0,
2012-09-12, 10:32:04,VALID,920.619,VALID,0,VALID,78.0028,VALID,267.528,VALID,23.5253,VALID,28,VALID,0,
2012-09-12, 10:33:04,VALID,920.616,VALID,0,VALID,76.8288,VALID,250.123,VALID,23.5448,VALID,11,VALID,0,
2012-09-12, 10:34:04,VALID,920.62,VALID,0,VALID,76.8135,VALID,250.553,VALID,23.5857,VALID,15,VALID,0,
2012-09-12, 10:35:04,VALID,920.627,VALID,0,VALID,77.5606,VALID,243.999,VALID,23.5679,VALID,15,VALID,0,
2012-09-12, 10:36:04,VALID,920.637,VALID,0,VALID,78.1248,VALID,228.312,VALID,23.5271,VALID,358,VALID,0,
2012-09-12, 10:37:04,VALID,920.585,VALID,0,VALID,76.8669,VALID,234.329,VALID,23.5466,VALID,23,VALID,0,
2012-09-12, 10:38:04,VALID,920.611,VALID,0,VALID,77.3167,VALID,254.958,VALID,23.5661,VALID,19,VALID,0,
2012-09-12, 10:39:04,VALID,920.604,VALID,0,VALID,76.0969,VALID,313.191,VALID,23.6052,VALID,355,VALID,0,
2012-09-12, 10:40:04,VALID,920.635,VALID,0,VALID,75.9597,VALID,348.217,VALID,23.5253,VALID,4,VALID,0,
2012-09-12, 10:41:04,VALID,920.607,VALID,0,VALID,77.0575,VALID,383.887,VALID,23.488,VALID,329,VALID,0,
2012-09-12, 10:42:04,VALID,920.605,VALID,0,VALID,77.675,VALID,425.145,VALID,23.5058,VALID,356,VALID,0,
2012-09-12, 10:43:04,VALID,920.494,VALID,0,VALID,78.0562,VALID,498.312,VALID,23.5661,VALID,33,VALID,0,
2012-09-12, 10:44:04,VALID,920.594,VALID,0,VALID,76.5848,VALID,343.06,VALID,23.6052,VALID,331,VALID,0,
2012-09-12, 10:45:04,VALID,920.555,VALID,0,VALID,74.618,VALID,364.978,VALID,23.5661,VALID,329,VALID,0,
2012-09-12, 10:46:04,VALID,920.497,VALID,0,VALID,76.8364,VALID,427.616,VALID,23.5271,VALID,329,VALID,0,
2012-09-12, 10:47:04,VALID,920.532,VALID,0,VALID,75.1669,VALID,359.068,VALID,23.449,VALID,292,VALID,0,
2012-09-12, 10:48:04,VALID,920.557,VALID,0,VALID,75.8454,VALID,363.366,VALID,23.3123,VALID,283,VALID,0,
2012-09-12, 10:49:04,VALID,920.653,VALID,0,VALID,77.9037,VALID,370.779,VALID,23.3319,VALID,19,VALID,0,
2012-09-12, 10:50:04,VALID,920.408,VALID,0,VALID,78.2772,VALID,403.549,VALID,23.488,VALID,6,VALID,0,
2012-09-12, 10:51:04,VALID,920.393,VALID,0,VALID,78.7499,VALID,418.806,VALID,23.5643,VALID,356,VALID,0,
2012-09-12, 10:52:04,VALID,920.555,VALID,0,VALID,78.7118,VALID,401.4,VALID,23.7614,VALID,17,VALID,0,
2012-09-12, 10:53:04,VALID,920.405,VALID,0,VALID,78.0257,VALID,375.077,VALID,23.898,VALID,17,VALID,0,
2012-09-12, 10:54:04,VALID,920.432,VALID,0,VALID,79.0624,VALID,369.49,VALID,23.9389,VALID,30,VALID,0,
2012-09-12, 10:55:04,VALID,920.345,VALID,0,VALID,76.5238,VALID,375.399,VALID,23.9371,VALID,2,VALID,0,
2012-09-12, 10:56:04,VALID,920.424,VALID,0,VALID,76.4095,VALID,392.053,VALID,23.9371,VALID,7,VALID,0,
2012-09-12, 10:57:04,VALID,920.385,VALID,0,VALID,75.6929,VALID,434.492,VALID,23.8785,VALID,306,VALID,0,
2012-09-12, 10:58:04,VALID,920.615,VALID,0,VALID,78.4221,VALID,481.014,VALID,23.8004,VALID,315,VALID,0,
2012-09-12, 10:59:04,VALID,920.486,VALID,0,VALID,78.5212,VALID,505.618,VALID,23.859,VALID,6,VALID,0,
2012-09-12, 11:00:04,VALID,920.323,VALID,0,VALID,76.1579,VALID,485.312,VALID,23.9371,VALID,6,VALID,0,
2012-09-12, 11:01:04,VALID,920.265,VALID,0,VALID,76.2494,VALID,503.577,VALID,24.0719,VALID,6,VALID,0,
2012-09-12, 11:02:04,VALID,920.159,VALID,0,VALID,75.7539,VALID,448.889,VALID,24.2495,VALID,15,VALID,0,
2012-09-12, 11:03:04,VALID,920.276,VALID,0,VALID,74.0081,VALID,467.584,VALID,24.3472,VALID,311,VALID,0,
2012-09-12, 11:04:04,VALID,920.16,VALID,0,VALID,73.787,VALID,412.359,VALID,24.3081,VALID,293,VALID,0,
2012-09-12, 11:05:04,VALID,920.313,VALID,0,VALID,75.8073,VALID,403.442,VALID,24.3453,VALID,24,VALID,0,
2012-09-12, 11:06:04,VALID,920.197,VALID,0,VALID,73.5431,VALID,417.409,VALID,24.3453,VALID,43,VALID,0,
2012-09-12, 11:07:04,VALID,920.179,VALID,0,VALID,74.8696,VALID,435.996,VALID,24.3472,VALID,62,VALID,0,
2012-09-12, 11:08:04,VALID,920.145,VALID,0,VALID,73.9243,VALID,474.89,VALID,24.4039,VALID,62,VALID,0,
2012-09-12, 11:09:04,VALID,920.275,VALID,0,VALID,73.7489,VALID,770.89,VALID,24.5796,VALID,61,VALID,0,
2012-09-12, 11:10:04,VALID,920.001,VALID,0,VALID,72.148,VALID,791.197,VALID,24.8354,VALID,10,VALID,0,
2012-09-12, 11:11:04,VALID,919.998,VALID,0,VALID,74.9534,VALID,623.159,VALID,24.9116,VALID,2,VALID,0,
2012-09-12, 11:12:04,VALID,920.329,VALID,0,VALID,72.4682,VALID,570.727,VALID,24.7163,VALID,342,VALID,0,
2012-09-12, 11:13:04,VALID,920.12,VALID,0,VALID,72.0794,VALID,648.085,VALID,24.5406,VALID,28,VALID,0.273828,
2012-09-12, 11:14:04,VALID,919.973,VALID,0,VALID,72.8646,VALID,672.797,VALID,24.5796,VALID,21,VALID,0,
2012-09-12, 11:15:04,VALID,918.154,VALID,0,VALID,70.913,VALID,731.782,VALID,24.7749,VALID,297,VALID,0,
2012-09-12, 11:16:04,VALID,920.111,VALID,0,VALID,69.5103,VALID,723.616,VALID,24.6577,VALID,283,VALID,0,
2012-09-12, 11:17:04,VALID,920.068,VALID,0,VALID,71.7897,VALID,731.352,VALID,24.482,VALID,301,VALID,0,
2012-09-12, 11:18:04,VALID,920.114,VALID,0,VALID,71.2866,VALID,777.659,VALID,24.5992,VALID,299,VALID,0,
2012-09-12, 11:19:04,VALID,919.982,VALID,0,VALID,72.1175,VALID,745.964,VALID,24.5992,VALID,258,VALID,0,
2012-09-12, 11:20:04,VALID,919.997,VALID,0,VALID,74.2292,VALID,762.295,VALID,24.6773,VALID,271,VALID,0,
2012-09-12, 11:21:04,VALID,920.068,VALID,0,VALID,70.4556,VALID,728.451,VALID,24.8921,VALID,265,VALID,0,
2012-09-12, 11:22:04,VALID,919.875,VALID,0,VALID,68.3897,VALID,714.699,VALID,24.8921,VALID,297,VALID,0,
2012-09-12, 11:23:04,VALID,919.932,VALID,0,VALID,68.9538,VALID,457.914,VALID,24.8335,VALID,267,VALID,0,
2012-09-12, 11:24:04,VALID,919.894,VALID,0,VALID,69.7085,VALID,423.533,VALID,24.7554,VALID,267,VALID,0,
2012-09-12, 11:25:04,VALID,919.82,VALID,0,VALID,71.561,VALID,413.326,VALID,24.8354,VALID,267,VALID,0,